User: anonymous   Login
Location: Mahannah Oil Field
(37.4664°N, 96.6003°W)
Time: 12:38:31
(UTC+00:00)
Language:

RESURS 01 DEB - Orbit

View from above orbital plane
View from above orbital plane
View from above satellite
View from above satellite

Ground track
Ground track

The orbit data is extracted from the following two-line orbital elements,

1 46878U 94074BJ  21263.09388593  .00001447  00000-0  18523-3 0  9994
2 46878  97.9166 312.2478 0010888 101.7110 258.5326 14.82837105 47467
Epoch (UTC): 20 September 2021 02:15:11
Eccentricity: 0.0010888
inclination: 97.9166°
perigee height: 613 km
apogee height: 628 km
right ascension of ascending node: 312.2478°
argument of perigee: 101.7110°
revolutions per day: 14.82837105
mean anomaly at epoch: 258.5326°
orbit number at epoch: 4746

The dashed part of the orbit path shows where the satellite is in the earth's shadow,  

DLR